[[{"header":{"parameterUnit":"m.s-1","parameterCategory":1,"la1":30.2991,"la2":30.254,"lo1":-89.0895,"lo2":-89.0444,"dy":0.0017,"dx":0.0017,"nx":28,"ny":28,"refTime":"2024-03-13T03:00:00:Z","depth":0,"parameterNumber":2,"parameterNumberName":"U-component_of_WINDS"},"data":[0,0,0,0,0,0,0,0,0,0,0,0,0,0,0,0,0,0,0,0,0,0,0,0,0,0,0,0,0,0,0,0,0,0,0,0,0,0,0,0,0,0,0,0,0,0,0,0,0,0,0,0,0,0,0,0,0,0,-0.0838,-0.0838,0,-0.0812,-0.0812,-0.0812,-0.0795,-0.0795,-0.0795,-0.0795,-0.077,-0.0769,-0.0768,0,0,0,0,0,0,0,0,0,0,0,0,0,-0.0876,-0.0875,-0.0838,-0.0838,-0.0838,-0.0812,-0.0812,-0.0812,-0.0795,-0.0795,-0.0795,-0.0795,-0.077,-0.0769,-0.0768,0,0,0,0,0,0,0,0,0,0,0,0,0,-0.0856,-0.0875,-0.0839,-0.0826,-0.0825,-0.0812,-0.0812,-0.0812,-0.0795,-0.0795,-0.0795,-0.0795,-0.077,-0.0769,-0.0768,-0.0766,0,0,-0.0766,-0.0765,0,0,0,0,0,0,0,0,-0.0857,-0.0855,-0.0829,-0.0827,-0.0826,-0.0807,-0.0816,-0.0796,-0.0795,-0.0807,-0.0795,-0.0795,-0.0782,-0.078,-0.0776,-0.0765,-0.0764,-0.0766,-0.0765,-0.0765,-0.0764,0,0,0,0,0,0,0,-0.0858,-0.0856,-0.0828,-0.0828,-0.0826,-0.0823,-0.082,-0.0812,-0.0796,-0.0806,-0.0804,-0.0801,-0.0781,-0.0777,-0.0775,-0.0763,-0.0766,-0.0765,-0.0764,-0.0764,-0.0751,-0.0751,0,0,0,0,0,0,-0.0862,-0.0857,-0.0829,-0.0827,-0.0841,-0.0822,-0.0819,-0.0813,-0.0796,-0.0793,-0.0801,-0.0801,-0.0778,-0.0776,-0.0774,-0.0771,-0.0765,-0.0764,-0.0763,-0.075,-0.0751,-0.0751,0,0,0,0,0,0,-0.0862,-0.0859,-0.083,-0.0842,-0.0838,-0.0822,-0.0815,-0.0813,-0.0808,-0.0793,-0.079,-0.08,-0.0778,-0.0775,-0.0768,-0.077,-0.0763,-0.0763,-0.075,-0.075,-0.0751,-0.0765,0,0,0,0,0,0,-0.0864,-0.086,-0.0858,-0.0842,-0.0837,-0.0824,-0.0815,-0.0812,-0.0806,-0.0805,-0.079,-0.0787,-0.0778,-0.077,-0.0767,-0.0769,-0.0762,-0.075,-0.075,-0.0751,-0.0764,-0.0765,-0.0766,0,0,0,0,0,-0.0865,-0.0863,-0.0858,-0.0855,-0.0835,-0.0824,-0.0822,-0.081,-0.0806,-0.0805,-0.0795,-0.0788,-0.077,-0.0769,-0.0766,-0.0767,-0.075,-0.075,-0.0751,-0.0763,-0.0765,-0.0766,0,0,0,0,0,0,-0.088,-0.0861,-0.0855,-0.0847,-0.0838,-0.0821,-0.0819,-0.0812,-0.0803,-0.0802,-0.0789,-0.0786,-0.078,-0.0773,-0.0772,-0.0765,-0.0759,-0.0759,-0.077,-0.0771,-0.0772,-0.0774,-0.0761,0,0,0,0,0,-0.0883,-0.0875,-0.0859,-0.0854,-0.0849,-0.0835,-0.083,-0.0822,-0.0811,-0.0807,-0.0797,-0.0788,-0.078,-0.0775,-0.0767,-0.0763,-0.076,-0.0762,-0.0764,-0.0765,-0.0765,-0.0763,-0.0764,-0.0752,-0.0752,-0.0752,0,0,-0.0888,-0.0876,-0.0872,-0.0857,-0.0848,-0.0841,-0.0832,-0.0825,-0.082,-0.0806,-0.0799,-0.0791,-0.078,-0.0775,-0.0772,-0.0768,-0.0767,-0.0765,-0.0766,-0.0766,-0.0763,-0.0765,-0.0766,-0.0752,-0.0752,-0.0752,0,0,-0.0893,-0.0883,-0.0879,-0.087,-0.0857,-0.0848,-0.0847,-0.0832,-0.0827,-0.0819,-0.0809,-0.0804,-0.079,-0.0783,-0.0777,-0.0782,-0.0775,-0.0779,-0.0786,-0.0784,-0.0785,-0.0786,-0.0788,-0.0789,-0.078,-0.078,-0.078,0,-0.0901,-0.089,-0.0877,-0.0871,-0.0865,-0.0852,-0.0848,-0.0841,-0.0826,-0.0823,-0.0819,-0.0803,-0.0794,-0.0787,-0.0789,-0.0784,-0.0783,-0.0781,-0.0786,-0.0787,-0.0787,-0.0789,-0.079,-0.078,-0.078,-0.078,-0.078,0,-0.0901,-0.0893,-0.0891,-0.0877,-0.0871,-0.0866,-0.0853,-0.0848,-0.0841,-0.0833,-0.0826,-0.0815,-0.0806,-0.0803,-0.0796,-0.0796,-0.0794,-0.0789,-0.0783,-0.0789,-0.0791,-0.0792,-0.0781,-0.0781,-0.0781,-0.0781,0,0,-0.0915,-0.0894,-0.0894,-0.0888,-0.0873,-0.0868,-0.0862,-0.0852,-0.0849,-0.084,-0.0835,-0.0825,-0.082,-0.0814,-0.0806,-0.0804,-0.081,-0.0799,-0.0799,-0.0802,-0.0809,-0.0814,-0.0815,-0.0805,-0.0805,-0.0805,-0.0811,0,-0.0919,-0.0908,-0.0897,-0.089,-0.0884,-0.0873,-0.0868,-0.0859,-0.0852,-0.0845,-0.0837,-0.083,-0.0824,-0.082,-0.0818,-0.0809,-0.0811,-0.0809,-0.0801,-0.0801,-0.0805,-0.0816,-0.082,-0.0826,-0.0811,-0.0811,-0.0811,0,-0.0921,-0.0913,-0.0906,-0.0892,-0.0889,-0.0885,-0.0876,-0.087,-0.086,-0.0855,-0.0848,-0.084,-0.0835,-0.083,-0.0823,-0.0822,-0.0818,-0.0814,-0.0813,-0.0813,-0.0807,-0.0816,-0.0828,-0.0829,-0.0812,-0.0812,-0.0812,0,-0.0933,-0.0919,-0.0914,-0.0909,-0.0893,-0.0891,-0.0885,-0.0874,-0.0869,-0.0861,-0.0858,-0.085,-0.0846,-0.084,-0.083,-0.0827,-0.0824,-0.0818,-0.082,-0.0821,-0.0821,-0.0821,-0.0833,-0.0818,-0.0818,-0.0818,-0.0818,0,-0.0939,-0.0935,-0.0919,-0.0915,-0.0911,-0.0899,-0.0896,-0.0888,-0.088,-0.0875,-0.0865,-0.0861,-0.0848,-0.0843,-0.0835,-0.0831,-0.0829,-0.0825,-0.0823,-0.0826,-0.0827,-0.0824,-0.0823,-0.0818,-0.0818,-0.0818,-0.0818,0,-0.0951,-0.094,-0.0933,-0.0919,-0.0915,-0.0913,-0.0902,-0.0898,-0.089,-0.0885,-0.0883,-0.087,-0.0864,-0.0853,-0.0844,-0.0839,-0.0837,-0.0833,-0.084,-0.0839,-0.0842,-0.0842,-0.0853,-0.0854,-0.0838,-0.0838,-0.0838,0,-0.0955,-0.0952,-0.0938,-0.0934,-0.0928,-0.0922,-0.0917,-0.0906,-0.0901,-0.089,-0.0888,-0.0881,-0.0875,-0.0865,-0.0855,-0.0848,-0.0845,-0.0849,-0.0844,-0.0847,-0.0846,-0.0846,-0.0846,-0.0851,-0.0851,-0.0851,-0.0851,0,-0.0964,-0.0959,-0.0952,-0.0944,-0.0939,-0.0931,-0.0924,-0.0921,-0.0908,-0.0904,-0.0897,-0.0892,-0.0883,-0.0876,-0.0868,-0.0862,-0.0855,-0.0853,-0.0853,-0.0857,-0.0861,-0.086,-0.0844,-0.0853,-0.0853,-0.0852,-0.0852,-0.0852,-0.0973,-0.097,-0.096,-0.0953,-0.0946,-0.094,-0.0936,-0.0928,-0.0922,-0.0914,-0.0907,-0.0901,-0.0893,-0.0881,-0.0875,-0.0871,-0.0868,-0.0868,-0.0868,-0.0868,-0.087,-0.0861,-0.0869,-0.0869,-0.0869,-0.0869,-0.0869,0,-0.0982,-0.0976,-0.0969,-0.0959,-0.0954,-0.0948,-0.0939,-0.0936,-0.093,-0.0923,-0.0917,-0.091,-0.0903,-0.0894,-0.0887,-0.0885,-0.0882,-0.0884,-0.0884,-0.0883,-0.0873,-0.0874,-0.0887,-0.0887,-0.0887,-0.0887,-0.0887,-0.0887,-0.0987,-0.0982,-0.0976,-0.0968,-0.0961,-0.0955,-0.0951,-0.0946,-0.0939,-0.0932,-0.0927,-0.092,-0.0912,-0.0905,-0.0899,-0.0897,-0.0895,-0.0898,-0.0895,-0.0885,-0.0884,-0.0882,-0.0883,-0.0898,-0.0898,-0.0905,-0.0905,-0.0905]},{"header":{"parameterUnit":"m.s-1","parameterCategory":1,"la1":30.2991,"la2":30.254,"lo1":-89.0895,"lo2":-89.0444,"dy":0.0017,"dx":0.0017,"nx":28,"ny":28,"refTime":"2024-03-13T03:00:00:Z","depth":0,"parameterNumber":3,"parameterNumberName":"V-component_of_WINDS"},"data":[0,0,0,0,0,0,0,0,0,0,0,0,0,0,0,0,0,0,0,0,0,0,0,0,0,0,0,0,0,0,0,0,0,0,0,0,0,0,0,0,0,0,0,0,0,0,0,0,0,0,0,0,0,0,0,0,0,0,3.8896,3.8896,0,3.8894,3.8894,3.8894,3.8837,3.8835,3.8834,3.8832,3.883,3.8831,3.8833,0,0,0,0,0,0,0,0,0,0,0,0,0,3.8851,3.8852,3.8896,3.8896,3.8896,3.8894,3.8894,3.8894,3.8837,3.8835,3.8833,3.8832,3.883,3.8831,3.8833,0,0,0,0,0,0,0,0,0,0,0,0,0,3.8862,3.8852,3.8896,3.8868,3.8865,3.8894,3.8894,3.8894,3.8837,3.8835,3.8833,3.8831,3.8829,3.8831,3.8833,3.889,0,0,3.8839,3.884,0,0,0,0,0,0,0,0,3.8861,3.8863,3.8872,3.887,3.8867,3.8864,3.8877,3.8893,3.8838,3.8848,3.8832,3.883,3.8843,3.8844,3.8848,3.889,3.8889,3.8839,3.884,3.8841,3.8842,0,0,0,0,0,0,0,3.886,3.8863,3.8896,3.8872,3.8869,3.8855,3.8854,3.888,3.8858,3.8847,3.8843,3.8843,3.8841,3.8846,3.8848,3.8889,3.8839,3.8841,3.8842,3.8843,3.8977,3.8979,0,0,0,0,0,0,3.8864,3.8863,3.8896,3.8895,3.8858,3.8857,3.8856,3.8867,3.8857,3.8854,3.8845,3.8841,3.8844,3.8845,3.8847,3.8912,3.8841,3.8843,3.8844,3.8975,3.8977,3.898,0,0,0,0,0,0,3.8863,3.8867,3.8896,3.8878,3.8881,3.886,3.8873,3.8868,3.8873,3.8856,3.8852,3.8855,3.8842,3.8845,3.8879,3.8912,3.8844,3.8846,3.8972,3.8975,3.8979,3.9044,0,0,0,0,0,0,3.8862,3.8867,3.8889,3.8879,3.8882,3.8928,3.8875,3.887,3.8877,3.8871,3.8864,3.8861,3.8841,3.8877,3.8881,3.8913,3.8847,3.8969,3.8973,3.8978,3.9039,3.9049,3.9058,0,0,0,0,0,3.886,3.8907,3.889,3.8894,3.8908,3.893,3.8932,3.8908,3.888,3.8901,3.889,3.8861,3.8908,3.8881,3.8886,3.8918,3.8967,3.8972,3.8977,3.9034,3.9047,3.9058,0,0,0,0,0,0,3.8921,3.8905,3.8886,3.8931,3.8933,3.892,3.8946,3.8922,3.8932,3.8926,3.8896,3.8895,3.8934,3.893,3.89,3.8973,3.8932,3.8939,3.8974,3.8986,3.8995,3.8995,3.8849,0,0,0,0,0,3.894,3.8959,3.8944,3.8985,3.8987,3.8967,3.8975,3.8957,3.8957,3.8957,3.8949,3.895,3.8965,3.8975,3.8988,3.9038,3.9036,3.9063,3.9073,3.9081,3.9087,3.9112,3.9124,3.8998,3.8997,3.8997,0,0,3.8978,3.8972,3.8986,3.8997,3.8996,3.9016,3.8968,3.8991,3.9006,3.8961,3.8993,3.8987,3.8987,3.9029,3.9048,3.9027,3.9121,3.9088,3.9094,3.9096,3.9119,3.9131,3.9142,3.9001,3.9,3.9,0,0,3.9058,3.9056,3.909,3.909,3.9089,3.9075,3.9083,3.9075,3.9069,3.9101,3.9068,3.9085,3.9111,3.9112,3.9116,3.9197,3.917,3.9202,3.9252,3.9278,3.9288,3.9296,3.9325,3.9335,3.9208,3.9208,3.9208,0,3.9106,3.9136,3.911,3.9136,3.9142,3.9102,3.9136,3.9137,3.914,3.9145,3.9122,3.9154,3.9151,3.9193,3.9213,3.9218,3.9226,3.9202,3.9288,3.9297,3.9305,3.9331,3.9342,3.9212,3.9212,3.9211,3.9211,0,3.9194,3.9215,3.9243,3.9247,3.9256,3.9285,3.9264,3.9276,3.9258,3.9247,3.928,3.9274,3.9285,3.9294,3.9276,3.9334,3.9321,3.9294,3.9252,3.9321,3.9345,3.9355,3.9217,3.9216,3.9215,3.9214,0,0,3.9312,3.9302,3.9312,3.9313,3.9309,3.9325,3.9353,3.9363,3.9374,3.9378,3.94,3.9424,3.9399,3.9403,3.9385,3.9407,3.9471,3.9377,3.9377,3.9394,3.9534,3.9553,3.9565,3.9454,3.9456,3.9457,3.9533,0,3.9389,3.9436,3.9414,3.9463,3.9482,3.9445,3.9469,3.9469,3.946,3.9474,3.9464,3.9481,3.9447,3.9449,3.947,3.9459,3.9499,3.9453,3.9474,3.9475,3.9474,3.9578,3.9599,3.9671,3.9543,3.9544,3.9545,0,3.9485,3.9492,3.9544,3.9536,3.9543,3.9565,3.9573,3.9587,3.9587,3.9578,3.9584,3.956,3.9587,3.9547,3.9583,3.9553,3.956,3.9556,3.9559,3.9558,3.9514,3.958,3.9693,3.9704,3.956,3.9559,3.9558,0,3.9564,3.9587,3.9621,3.9623,3.9615,3.9632,3.9629,3.9626,3.9634,3.9641,3.9646,3.9656,3.9662,3.967,3.965,3.9623,3.9689,3.9647,3.9682,3.9683,3.9697,3.9696,3.9812,3.9704,3.9704,3.9703,3.9703,0,3.9651,3.9684,3.9656,3.9677,3.9712,3.9687,3.9722,3.9716,3.9714,3.9732,3.9702,3.972,3.9693,3.9708,3.9693,3.9725,3.9728,3.9721,3.9716,3.9723,3.9724,3.9727,3.9721,3.9706,3.9706,3.9705,3.9704,0,3.9746,3.9728,3.9762,3.9752,3.9751,3.9777,3.9768,3.9787,3.9775,3.9799,3.9803,3.9786,3.9802,3.9783,3.9798,3.9788,3.9831,3.982,3.9831,3.9827,3.9863,3.986,3.9984,3.9998,3.9882,3.9883,3.9884,0,3.9802,3.9826,3.9819,3.9829,3.9828,3.9845,3.9853,3.9829,3.9838,3.984,3.9858,3.9872,3.9882,3.991,3.9898,3.991,3.9897,3.994,3.9899,3.9905,3.9897,3.9895,3.9897,3.9948,3.995,3.9951,3.9952,0,3.9904,3.9894,3.9906,3.9916,3.9926,3.9932,3.9936,3.9947,3.9922,3.9934,3.995,3.9958,3.9973,3.9987,3.9996,3.9993,3.9968,3.9965,3.9973,3.998,3.9985,3.9982,3.9853,3.9962,3.9961,3.996,3.996,3.9959,3.998,3.9999,3.9997,4.0012,4.0012,4.0017,4.0034,4.0025,4.0038,4.0048,4.0034,4.0054,4.0053,4.0061,4.0062,4.0077,4.0059,4.0071,4.0074,4.0077,4.0082,3.9984,4.0079,4.0078,4.0078,4.0078,4.0078,0,4.0079,4.0076,4.009,4.0096,4.0108,4.0084,4.0087,4.0099,4.0117,4.0118,4.0128,4.0147,4.0161,4.015,4.0162,4.0176,4.0165,4.018,4.0178,4.0177,4.0099,4.009,4.0188,4.0188,4.0188,4.0188,4.0188,4.0188,4.0132,4.0163,4.0153,4.0185,4.0181,4.0201,4.0205,4.0209,4.0209,4.0232,4.0243,4.0236,4.0233,4.0244,4.0255,4.0252,4.0257,4.0275,4.0268,4.0194,4.0183,4.0173,4.0164,4.0277,4.0277,4.0345,4.0346,4.0346]}]]